TimeEST,TemperatureF,Dew PointF,Humidity,Sea Level PressureIn,VisibilityMPH,Wind Direction,Wind SpeedMPH,Gust SpeedMPH,PrecipitationIn,Events,Conditions,WindDirDegrees,DateUTC
12:15 AM,37.6,37.4,99,30.34,10.0,North,-9999.0,-,N/A,,Clear,0,2012-12-02 05:15:00
12:35 AM,37.6,37.6,100,30.35,10.0,North,-9999.0,-,N/A,,Clear,0,2012-12-02 05:35:00
12:55 AM,37.8,37.8,100,30.34,10.0,North,-9999.0,-,N/A,,Clear,0,2012-12-02 05:55:00
1:15 AM,37.8,37.8,100,30.34,10.0,North,-9999.0,-,N/A,,Clear,0,2012-12-02 06:15:00
1:35 AM,37.8,37.6,99,30.34,10.0,North,-9999.0,-,N/A,,Clear,0,2012-12-02 06:35:00
1:55 AM,37.4,37.2,99,30.34,10.0,North,-9999.0,-,N/A,,Clear,0,2012-12-02 06:55:00
2:15 AM,37.8,37.8,100,30.35,10.0,North,-9999.0,-,N/A,,Clear,0,2012-12-02 07:15:00
2:35 AM,37.4,37.4,100,30.35,10.0,North,-9999.0,-,N/A,,Clear,0,2012-12-02 07:35:00
2:55 AM,37.4,37.4,100,30.35,10.0,North,-9999.0,-,N/A,,Clear,0,2012-12-02 07:55:00
3:15 AM,37.0,37.0,100,30.35,10.0,North,-9999.0,-,N/A,,Clear,0,2012-12-02 08:15:00
3:35 AM,36.7,36.7,100,30.35,7.0,North,-9999.0,-,N/A,,Clear,0,2012-12-02 08:35:00
3:55 AM,36.5,36.5,100,30.34,7.0,North,-9999.0,-,N/A,,Clear,0,2012-12-02 08:55:00
4:15 AM,36.0,36.0,100,30.34,5.0,North,-9999.0,-,N/A,,Clear,0,2012-12-02 09:15:00
4:35 AM,35.6,35.6,100,30.34,7.0,North,-9999.0,-,N/A,,Clear,0,2012-12-02 09:35:00
4:55 AM,35.6,35.6,100,30.34,7.0,North,-9999.0,-,N/A,,Clear,0,2012-12-02 09:55:00
5:15 AM,35.8,35.8,100,30.34,10.0,North,-9999.0,-,N/A,,Clear,0,2012-12-02 10:15:00
5:55 AM,36.0,36.0,100,30.35,7.0,North,-9999.0,-,N/A,,Clear,0,2012-12-02 10:55:00
6:15 AM,35.8,35.8,100,30.34,7.0,North,-9999.0,-,N/A,,Clear,0,2012-12-02 11:15:00
6:35 AM,36.0,36.0,100,30.34,7.0,North,-9999.0,-,N/A,,Clear,0,2012-12-02 11:35:00
6:55 AM,36.0,36.0,100,30.34,5.0,North,-9999.0,-,N/A,,Clear,0,2012-12-02 11:55:00
7:15 AM,35.8,35.8,100,30.34,4.0,North,-9999.0,-,N/A,,Clear,0,2012-12-02 12:15:00
7:35 AM,35.6,35.6,100,30.34,7.0,North,-9999.0,-,N/A,,Clear,0,2012-12-02 12:35:00
7:55 AM,35.1,35.1,100,30.34,4.0,North,-9999.0,-,N/A,,Clear,0,2012-12-02 12:55:00
8:15 AM,35.8,35.8,100,30.33,4.0,North,-9999.0,-,N/A,,Clear,0,2012-12-02 13:15:00
8:35 AM,38.3,38.3,100,30.33,7.0,North,-9999.0,-,N/A,,Clear,0,2012-12-02 13:35:00
8:55 AM,39.4,39.4,100,30.33,5.0,North,-9999.0,-,N/A,,Clear,0,2012-12-02 13:55:00
9:15 AM,40.1,40.1,100,30.33,7.0,North,-9999.0,-,N/A,,Clear,0,2012-12-02 14:15:00
9:35 AM,44.2,44.2,100,30.33,10.0,North,-9999.0,-,N/A,,Clear,0,2012-12-02 14:35:00
9:55 AM,44.6,44.4,99,30.33,10.0,North,-9999.0,-,N/A,,Clear,0,2012-12-02 14:55:00
10:15 AM,49.8,47.5,92,30.32,10.0,North,-9999.0,-,N/A,,Clear,0,2012-12-02 15:15:00
10:35 AM,54.0,48.9,83,30.32,10.0,North,-9999.0,-,N/A,,Clear,0,2012-12-02 15:35:00
11:15 AM,57.9,49.1,72,30.31,10.0,North,-9999.0,-,N/A,,Clear,0,2012-12-02 16:15:00
11:35 AM,64.2,47.7,55,30.30,10.0,North,-9999.0,-,N/A,,Clear,0,2012-12-02 16:35:00
11:55 AM,65.5,47.8,53,30.29,10.0,North,-9999.0,-,N/A,,Clear,0,2012-12-02 16:55:00
12:15 PM,66.6,48.0,51,30.27,10.0,North,-9999.0,-,N/A,,Clear,0,2012-12-02 17:15:00
12:55 PM,67.8,48.2,49,30.25,10.0,North,-9999.0,-,N/A,,Scattered Clouds,0,2012-12-02 17:55:00
1:15 PM,67.8,48.4,50,30.24,10.0,North,-9999.0,-,N/A,,Scattered Clouds,0,2012-12-02 18:15:00
1:35 PM,68.9,48.7,49,30.24,10.0,North,-9999.0,-,N/A,,Mostly Cloudy,0,2012-12-02 18:35:00
1:55 PM,67.5,48.7,51,30.23,10.0,North,-9999.0,-,N/A,,Mostly Cloudy,0,2012-12-02 18:55:00
2:15 PM,68.9,48.9,49,30.23,10.0,North,-9999.0,-,N/A,,Scattered Clouds,0,2012-12-02 19:15:00
2:35 PM,69.6,48.9,48,30.22,10.0,North,-9999.0,-,N/A,,Scattered Clouds,0,2012-12-02 19:35:00
2:55 PM,69.1,48.7,48,30.22,10.0,North,-9999.0,-,N/A,,Scattered Clouds,0,2012-12-02 19:55:00
3:15 PM,69.1,49.1,49,30.22,10.0,North,-9999.0,-,N/A,,Mostly Cloudy,0,2012-12-02 20:15:00
3:35 PM,68.0,49.1,51,30.21,10.0,North,-9999.0,-,N/A,,Scattered Clouds,0,2012-12-02 20:35:00
3:55 PM,67.1,49.1,52,30.22,10.0,North,-9999.0,-,N/A,,Mostly Cloudy,0,2012-12-02 20:55:00
4:15 PM,66.4,49.1,54,30.22,10.0,North,-9999.0,-,N/A,,Overcast,0,2012-12-02 21:15:00
4:35 PM,65.3,49.5,57,30.23,10.0,North,-9999.0,-,N/A,,Overcast,0,2012-12-02 21:35:00
4:55 PM,63.9,50.2,61,30.22,10.0,North,-9999.0,-,N/A,,Overcast,0,2012-12-02 21:55:00
5:15 PM,63.9,49.6,60,30.23,10.0,North,-9999.0,-,N/A,,Overcast,0,2012-12-02 22:15:00
5:35 PM,63.0,50.0,63,30.23,10.0,North,-9999.0,-,N/A,,Overcast,0,2012-12-02 22:35:00
5:55 PM,61.7,50.0,65,30.23,10.0,North,-9999.0,-,N/A,,Overcast,0,2012-12-02 22:55:00
6:35 PM,59.7,50.2,71,30.24,10.0,North,-9999.0,-,N/A,,Overcast,0,2012-12-02 23:35:00
7:15 PM,59.7,50.2,71,30.25,10.0,North,-9999.0,-,N/A,,Overcast,0,2012-12-03 00:15:00
7:35 PM,61.2,50.5,68,30.25,10.0,North,-9999.0,-,N/A,,Overcast,0,2012-12-03 00:35:00
8:15 PM,59.2,51.1,74,30.26,10.0,North,-9999.0,-,N/A,,Overcast,0,2012-12-03 01:15:00
8:35 PM,58.1,52.2,81,30.26,10.0,North,-9999.0,-,N/A,,Overcast,0,2012-12-03 01:35:00
8:55 PM,59.2,51.8,77,30.27,10.0,North,-9999.0,-,N/A,,Overcast,0,2012-12-03 01:55:00
9:15 PM,58.8,52.0,78,30.27,10.0,North,-9999.0,-,N/A,,Overcast,0,2012-12-03 02:15:00
9:35 PM,57.7,52.7,83,30.27,10.0,North,-9999.0,-,N/A,,Overcast,0,2012-12-03 02:35:00
9:55 PM,58.8,52.3,79,30.28,10.0,North,-9999.0,-,N/A,,Overcast,0,2012-12-03 02:55:00
10:15 PM,58.6,52.3,80,30.28,10.0,North,-9999.0,-,N/A,,Overcast,0,2012-12-03 03:15:00
10:35 PM,58.1,52.3,81,30.28,10.0,North,-9999.0,-,N/A,,Overcast,0,2012-12-03 03:35:00
10:55 PM,57.7,52.7,83,30.28,10.0,North,-9999.0,-,N/A,,Overcast,0,2012-12-03 03:55:00
11:15 PM,57.2,52.7,85,30.29,10.0,North,-9999.0,-,N/A,,Overcast,0,2012-12-03 04:15:00
11:55 PM,57.7,52.7,83,30.29,10.0,North,-9999.0,-,N/A,,Overcast,0,2012-12-03 04:55:00